| time (UTC) | temp F | wind direction | speed knots | gust knots | rain 1hr in | rain 24hr in | rain mn in | humidity % | barometer mb |
| 20260509024516 | 71 | 0.0 | 0.0 | 0.00 | 0.00 | 0.00 | 64 | 1015.2 | |
| 20260509023017 | 72 | 0.0 | 0.0 | 0.00 | 0.00 | 0.00 | 62 | 1015.2 | |
| 20260509021517 | 73 | 0.0 | 0.0 | 0.00 | 0.00 | 0.00 | 60 | 1015.1 | |
| 20260509020057 | 74 | 0.0 | 0.0 | 0.00 | 0.00 | 0.00 | 59 | 1015.2 | |
| 20260509014517 | 74 | 0.0 | 0.0 | 0.00 | 0.00 | 0.00 | 57 | 1015.3 | |
| 20260509013017 | 76 | 0.0 | 0.0 | 0.00 | 0.00 | 0.00 | 56 | 1015.5 | |
| 20260509011517 | 77 | 0.0 | 0.0 | 0.00 | 0.00 | 0.00 | 55 | 1015.6 | |
| 20260509010016 | 77 | 0.0 | 0.0 | 0.00 | 0.00 | 0.00 | 55 | 1015.7 | |
| 20260509004516 | 77 | 0.0 | 0.0 | 0.00 | 0.00 | 0.00 | 52 | 1015.8 | |
| 20260509003016 | 78 | 0.0 | 0.0 | 0.00 | 0.00 | 0.00 | 51 | 1016.1 | |
| 20260509001516 | 77 | 0.0 | 0.0 | 0.00 | 0.00 | 0.00 | 48 | 1016.1 | |
| 20260509000036 | 77 | 0.0 | 0.0 | 0.00 | 0.00 | 0.00 | 48 | 1016.1 | |
| 20260508234516 | 77 | 0.0 | 0.0 | 0.00 | 0.00 | 0.00 | 49 | 1016.1 | |
| 20260508233016 | 77 | 0.0 | 0.0 | 0.00 | 0.00 | 0.00 | 47 | 1016.3 | |
| 20260508231516 | 77 | 0.0 | 0.0 | 0.00 | 0.00 | 0.00 | 51 | 1016.4 | |
| 20260508230016 | 76 | 0.0 | 0.0 | 0.00 | 0.00 | 0.00 | 44 | 1016.6 | |
| 20260508224516 | 76 | 0.0 | 0.0 | 0.00 | 0.00 | 0.00 | 45 | 1016.8 | |
| 20260508223016 | 76 | 0.0 | 0.0 | 0.00 | 0.00 | 0.00 | 51 | 1017.0 | |
| 20260508221516 | 76 | 0.0 | 0.0 | 0.00 | 0.00 | 0.00 | 50 | 1017.2 | |
| 20260508220016 | 76 | 0.0 | 0.0 | 0.00 | 0.00 | 0.00 | 55 | 1017.5 | |
| 20260508214516 | 76 | 0.0 | 0.0 | 0.00 | 0.00 | 0.00 | 52 | 1017.3 | |
| 20260508213016 | 77 | 0.0 | 0.0 | 0.00 | 0.00 | 0.00 | 57 | 1017.8 | |
| 20260508211516 | 76 | 0.0 | 0.0 | 0.00 | 0.00 | 0.00 | 53 | 1017.8 | |
| 20260508210016 | 75 | 0.0 | 0.0 | 0.00 | 0.00 | 0.00 | 56 | 1017.7 | |
| 20260508204516 | 75 | 0.0 | 0.0 | 0.00 | 0.00 | 0.00 | 59 | 1017.8 | |
| 20260508203016 | 75 | 0.0 | 0.0 | 0.00 | 0.00 | 0.00 | 63 | 1017.8 | |
| 20260508201516 | 75 | 0.0 | 0.0 | 0.00 | 0.00 | 0.00 | 60 | 1017.8 | |
| 20260508200036 | 75 | 0.0 | 0.0 | 0.00 | 0.00 | 0.00 | 62 | 1017.8 | |
| 20260508194516 | 74 | 0.0 | 0.0 | 0.00 | 0.00 | 0.00 | 65 | 1018.1 | |
| 20260508193016 | 74 | 0.0 | 0.0 | 0.00 | 0.00 | 0.00 | 66 | 1018.1 | |
| 20260508191516 | 75 | 0.0 | 0.0 | 0.00 | 0.00 | 0.00 | 63 | 1018.2 | |
| 20260508190016 | 76 | 0.0 | 0.0 | 0.00 | 0.00 | 0.00 | 63 | 1018.6 | |
| 20260508184516 | 76 | 0.0 | 0.0 | 0.00 | 0.00 | 0.00 | 54 | 1018.4 | |
| 20260508183016 | 77 | 0.0 | 0.0 | 0.00 | 0.00 | 0.00 | 47 | 1018.6 | |
| 20260508181516 | 77 | 0.0 | 0.0 | 0.00 | 0.00 | 0.00 | 49 | 1018.6 | |
| 20260508180016 | 78 | 0.0 | 0.0 | 0.00 | 0.00 | 0.00 | 45 | 1018.7 | |
| 20260508174516 | 78 | 0.0 | 0.0 | 0.00 | 0.00 | 0.00 | 44 | 1018.6 | |
| 20260508173036 | 75 | 0.0 | 0.0 | 0.00 | 0.00 | 0.00 | 47 | 1018.7 | |
| 20260508171516 | 75 | 0.0 | 0.0 | 0.00 | 0.00 | 0.00 | 46 | 1018.6 | |
| 20260508170016 | 74 | 0.0 | 0.0 | 0.00 | 0.00 | 0.00 | 44 | 1018.5 | |
| 20260508164516 | 74 | 0.0 | 0.0 | 0.00 | 0.00 | 0.00 | 42 | 1018.4 | |
| 20260508163016 | 73 | 0.0 | 0.0 | 0.00 | 0.00 | 0.00 | 45 | 1018.5 | |
| 20260508161516 | 72 | 0.0 | 0.0 | 0.00 | 0.00 | 0.00 | 45 | 1018.4 | |
| 20260508160016 | 71 | 0.0 | 0.0 | 0.00 | 0.00 | 0.00 | 43 | 1018.4 | |
| 20260508154516 | 71 | 0.0 | 0.0 | 0.00 | 0.00 | 0.00 | 49 | 1018.5 | |
| 20260508153016 | 69 | 0.0 | 0.0 | 0.00 | 0.00 | 0.00 | 45 | 1018.4 | |
| 20260508151516 | 68 | 0.0 | 0.0 | 0.00 | 0.00 | 0.00 | 47 | 1018.3 | |
| 20260508150016 | 66 | 0.0 | 0.0 | 0.00 | 0.00 | 0.00 | 48 | 1018.1 | |
| 20260508144516 | 63 | 0.0 | 0.0 | 0.00 | 0.00 | 0.00 | 49 | 1017.8 | |
| 20260508143016 | 62 | 0.0 | 0.0 | 0.00 | 0.00 | 0.00 | 51 | 1017.7 | |
| 20260508141515 | 62 | 0.0 | 0.0 | 0.00 | 0.00 | 0.00 | 49 | 1017.6 | |
| 20260508140016 | 60 | 0.0 | 0.0 | 0.00 | 0.00 | 0.00 | 51 | 1017.4 | |
| 20260508134536 | 59 | 0.0 | 0.0 | 0.00 | 0.00 | 0.00 | 52 | 1017.4 | |
| 20260508133016 | 58 | 0.0 | 0.0 | 0.00 | 0.00 | 0.00 | 52 | 1017.3 | |
| 20260508131515 | 58 | 0.0 | 0.0 | 0.00 | 0.00 | 0.00 | 52 | 1017.3 | |
| 20260508130016 | 58 | 0.0 | 0.0 | 0.00 | 0.00 | 0.00 | 53 | 1017.2 | |
| 20260508124516 | 58 | 0.0 | 0.0 | 0.00 | 0.00 | 0.00 | 55 | 1017.2 | |
| 20260508123015 | 58 | 0.0 | 0.0 | 0.00 | 0.00 | 0.00 | 56 | 1017.1 | |
| 20260508121516 | 58 | 0.0 | 0.0 | 0.00 | 0.00 | 0.00 | 55 | 1017.2 | |
| 20260508120016 | 59 | 0.0 | 0.0 | 0.00 | 0.00 | 0.00 | 55 | 1017.2 | |
| 20260508114516 | 59 | 0.0 | 0.0 | 0.00 | 0.00 | 0.00 | 56 | 1017.1 | |
| 20260508113016 | 59 | 0.0 | 0.0 | 0.00 | 0.00 | 0.00 | 57 | 1017.0 | |
| 20260508111516 | 59 | 0.0 | 0.0 | 0.00 | 0.00 | 0.00 | 59 | 1017.1 | |
| 20260508110015 | 59 | 0.0 | 0.0 | 0.00 | 0.00 | 0.00 | 60 | 1017.1 | |
| 20260508104515 | 59 | 0.0 | 0.0 | 0.00 | 0.00 | 0.00 | 62 | 1017.0 | |
| 20260508103015 | 60 | 0.0 | 0.0 | 0.00 | 0.00 | 0.00 | 63 | 1017.1 | |
| 20260508101515 | 60 | 0.0 | 0.0 | 0.00 | 0.00 | 0.00 | 66 | 1017.0 | |
| 20260508100036 | 60 | 0.0 | 0.0 | 0.00 | 0.00 | 0.00 | 67 | 1017.0 | |
| 20260508094516 | 60 | 0.0 | 0.0 | 0.00 | 0.00 | 0.00 | 69 | 1017.2 | |
| 20260508093016 | 61 | 0.0 | 0.0 | 0.00 | 0.00 | 0.00 | 71 | 1017.3 | |
| 20260508091516 | 61 | 0.0 | 0.0 | 0.00 | 0.00 | 0.00 | 73 | 1017.4 | |
| 20260508090015 | 62 | 0.0 | 0.0 | 0.00 | 0.00 | 0.00 | 74 | 1017.2 | |
| 20260508084515 | 62 | 0.0 | 0.0 | 0.00 | 0.00 | 0.00 | 74 | 1017.1 | |
| 20260508083015 | 62 | 0.0 | 0.0 | 0.00 | 0.00 | 0.00 | 75 | 1017.2 | |
| 20260508081516 | 62 | 0.0 | 0.0 | 0.00 | 0.00 | 0.00 | 74 | 1017.3 | |
| 20260508080015 | 62 | 0.0 | 0.0 | 0.00 | 0.00 | 0.00 | 75 | 1017.4 | |
| 20260508074515 | 62 | 0.0 | 0.0 | 0.00 | 0.00 | 0.00 | 75 | 1017.2 | |
| 20260508073035 | 62 | 0.0 | 0.0 | 0.00 | 0.00 | 0.00 | 77 | 1017.2 | |
| 20260508071515 | 62 | 0.0 | 0.0 | 0.00 | 0.00 | 0.00 | 79 | 1017.3 | |
| 20260508070015 | 63 | 0.0 | 0.0 | 0.00 | 0.00 | 0.00 | 79 | 1017.3 | |
| 20260508064517 | 63 | 0.0 | 0.0 | 0.00 | 0.00 | 0.00 | 80 | 1017.4 | |
| 20260508063037 | 63 | 0.0 | 0.0 | 0.00 | 0.00 | 0.00 | 80 | 1017.4 | |
| 20260508061517 | 63 | 0.0 | 0.0 | 0.00 | 0.00 | 0.00 | 81 | 1017.6 | |
| 20260508060017 | 63 | 0.0 | 0.0 | 0.00 | 0.00 | 0.00 | 82 | 1017.7 | |
| 20260508054516 | 64 | 0.0 | 0.0 | 0.00 | 0.00 | 0.00 | 84 | 1017.9 | |
| 20260508053036 | 64 | 0.0 | 0.0 | 0.00 | 0.00 | 0.00 | 83 | 1017.8 | |
| 20260508051516 | 65 | 0.0 | 0.0 | 0.00 | 0.00 | 0.00 | 83 | 1017.8 | |
| 20260508050016 | 65 | 0.0 | 0.0 | 0.00 | 0.00 | 0.00 | 82 | 1017.6 | |
| 20260508044517 | 66 | 0.0 | 0.0 | 0.00 | 0.00 | 0.00 | 82 | 1018.0 | |
| 20260508043036 | 66 | 0.0 | 0.0 | 0.00 | 0.00 | 0.00 | 81 | 1017.7 | |
| 20260508041516 | 67 | 0.0 | 0.0 | 0.00 | 0.00 | 0.00 | 80 | 1017.5 | |
| 20260508040016 | 67 | 0.0 | 0.0 | 0.00 | 0.00 | 0.00 | 79 | 1017.1 | |
| 20260508034516 | 67 | 0.0 | 0.0 | 0.00 | 0.00 | 0.00 | 78 | 1017.1 | |
| 20260508033036 | 68 | 0.0 | 0.0 | 0.00 | 0.00 | 0.00 | 77 | 1016.9 | |
| 20260508031516 | 69 | 0.0 | 0.0 | 0.00 | 0.00 | 0.00 | 76 | 1016.8 | |
| 20260508030016 | 70 | 0.0 | 0.0 | 0.00 | 0.00 | 0.00 | 74 | 1016.6 |